Location: Siratepeler Tepesi
(39.1042°N, 32.0781°E)
Time: 05:58:16
(UTC+00:00)

CZ-4 R/B - Pass Details

Date: 11 April 2026
Orbit: 490 x 537 km, 97.5° (Epoch: 9 May)

Event Time Altitude Azimuth Distance (km) Brightness Sun altitude
Exits shadow 17:25:51 15° 140° (SE) 1,462 3.0 -12.1°
Maximum altitude 17:28:39 42° 74° (ENE) 763 1.7 -12.6°
Drops below altitude 10° 17:32:14 10° 3° (N) 1,757 4.1 -13.3°
Sets 17:34:24 0° 356° (N) 2,640 5.2 -13.7°
